Location: ????? ??????
(37.8317°N, 23.8750°E)
Time: 13:47:43
(UTC+00:00)

Meteor 2-19 Rocket - Pass Details

Date: 20 January 2021
Orbit: 935 x 959 km, 82.6° (Epoch: 04 March)

Event Time Altitude Azimuth Distance (km) Brightness Sun altitude
Rises 17:49:26 0° 185° (S) 3,620 7.6 -26.4°
Reaches altitude 10° 17:51:55 10° 185° (S) 2,680 6.9 -26.9°
Maximum altitude 17:58:04 90° 146° (SE) 965 4.3 -28.1°
Enters shadow 18:00:11 44° 7° (N) 1,299 5.0 -28.5°
